Time,TemperatureF,DewpointF,PressureIn,WindDirection,WindDirectionDegrees,WindSpeedMPH,WindSpeedGustMPH,Humidity,HourlyPrecipIn,Conditions,Clouds,dailyrainin,SoftwareType,DateUTC
2013-12-15 00:00:00,48.6,48.1,29.92,West,278,0.0,3.0,98,0.02,,,0.76,VWS V14.01,2013-12-15 05:00:00,
2013-12-15 00:01:00,48.7,48.2,29.92,SW,233,0.0,3.0,98,0.01,,,0.00,VWS V14.01,2013-12-15 05:01:00,
2013-12-15 00:02:00,48.7,48.2,29.92,SW,233,0.0,3.0,98,0.01,,,0.00,VWS V14.01,2013-12-15 05:02:00,
2013-12-15 00:07:00,48.9,48.4,29.90,SE,134,1.0,3.0,98,0.01,,,0.00,VWS V14.01,2013-12-15 05:07:00,
2013-12-15 00:12:00,49.0,48.7,29.90,SE,134,0.0,3.0,99,0.01,,,0.00,VWS V14.01,2013-12-15 05:12:00,
2013-12-15 00:17:00,49.2,48.9,29.91,SE,134,0.0,3.0,99,0.01,,,0.00,VWS V14.01,2013-12-15 05:17:00,
2013-12-15 00:22:00,49.4,48.9,29.91,West,262,1.0,3.0,98,0.01,,,0.00,VWS V14.01,2013-12-15 05:22:00,
2013-12-15 00:27:00,49.6,49.3,29.90,South,173,0.0,3.0,99,0.01,,,0.00,VWS V14.01,2013-12-15 05:27:00,
2013-12-15 00:30:00,49.6,49.3,29.91,WSW,250,0.0,4.0,99,0.01,,,0.00,VWS V14.01,2013-12-15 05:30:00,
2013-12-15 00:32:00,49.7,49.4,29.91,WNW,293,1.0,2.0,99,0.01,,,0.00,VWS V14.01,2013-12-15 05:32:00,
2013-12-15 00:37:00,49.8,49.3,29.92,East,98,0.0,4.0,98,0.01,,-RA,0.00,VWS V14.01,2013-12-15 05:37:00,
2013-12-15 00:42:00,49.8,49.3,29.91,West,266,0.0,5.0,98,0.01,,-RA,0.00,VWS V14.01,2013-12-15 05:42:00,
2013-12-15 00:47:00,49.9,49.4,29.90,SW,236,3.0,5.0,98,0.01,,-RA,0.00,VWS V14.01,2013-12-15 05:47:00,
2013-12-15 00:52:00,50.0,49.5,29.90,West,271,5.0,7.0,98,0.01,,,0.00,VWS V14.01,2013-12-15 05:52:00,
2013-12-15 00:57:00,50.1,49.6,29.91,WSW,251,0.0,7.0,98,0.01,,,0.00,VWS V14.01,2013-12-15 05:57:00,
2013-12-15 01:00:00,50.1,49.6,29.91,West,259,3.0,7.0,98,0.01,,,0.00,VWS V14.01,2013-12-15 06:00:00,
2013-12-15 01:02:00,50.1,49.6,29.91,SW,229,1.0,6.0,98,0.00,,,0.00,VWS V14.01,2013-12-15 06:02:00,
2013-12-15 01:07:00,50.1,49.3,29.90,WNW,284,4.0,8.0,97,0.00,,,0.00,VWS V14.01,2013-12-15 06:07:00,
2013-12-15 01:12:00,50.0,49.2,29.91,WSW,257,2.0,11.0,97,0.00,,,0.00,VWS V14.01,2013-12-15 06:12:00,
2013-12-15 01:17:00,49.9,48.8,29.91,NW,309,2.0,11.0,96,0.00,,,0.00,VWS V14.01,2013-12-15 06:17:00,
2013-12-15 01:22:00,49.7,48.3,29.91,SSW,206,0.0,11.0,95,0.00,,,0.00,VWS V14.01,2013-12-15 06:22:00,
2013-12-15 01:27:00,49.5,47.8,29.91,SSW,198,1.0,11.0,94,0.00,,,0.00,VWS V14.01,2013-12-15 06:27:00,
2013-12-15 01:30:00,49.4,47.8,29.91,WNW,296,2.0,11.0,94,0.00,,,0.00,VWS V14.01,2013-12-15 06:30:00,
2013-12-15 01:32:00,49.3,47.7,29.89,NNE,28,2.0,6.0,94,0.00,,,0.00,VWS V14.01,2013-12-15 06:32:00,
2013-12-15 01:37:00,49.0,47.3,29.89,WSW,240,0.0,6.0,94,0.00,,OVC018,0.00,VWS V14.01,2013-12-15 06:37:00,
2013-12-15 01:42:00,48.8,47.2,29.89,NNE,17,1.0,8.0,94,0.00,,OVC018,0.00,VWS V14.01,2013-12-15 06:42:00,
2013-12-15 01:47:00,48.7,47.3,29.90,West,274,0.0,8.0,95,0.00,,OVC018,0.00,VWS V14.01,2013-12-15 06:47:00,
2013-12-15 01:52:00,48.7,47.3,29.90,NW,305,0.0,8.0,95,0.00,,OVC015,0.00,VWS V14.01,2013-12-15 06:52:00,
2013-12-15 01:57:00,48.6,47.2,29.91,SSW,194,5.0,8.0,95,0.00,,OVC015,0.00,VWS V14.01,2013-12-15 06:57:00,
2013-12-15 02:00:00,48.6,47.2,29.91,North,360,3.0,8.0,95,0.00,,,0.00,VWS V14.01,2013-12-15 07:00:00,
2013-12-15 02:01:00,48.6,47.2,29.90,West,273,0.0,5.0,95,0.00,,OVC015,0.00,VWS V14.01,2013-12-15 07:01:00,
2013-12-15 02:06:00,48.5,47.1,29.90,North,355,0.0,5.0,95,0.00,,OVC015,0.00,VWS V14.01,2013-12-15 07:06:00,
2013-12-15 02:11:00,48.4,47.0,29.90,SW,229,2.0,5.0,95,0.00,,OVC015,0.00,VWS V14.01,2013-12-15 07:11:00,
2013-12-15 02:16:00,48.4,47.0,29.90,West,268,1.0,8.0,95,0.00,,OVC015,0.00,VWS V14.01,2013-12-15 07:16:00,
2013-12-15 02:21:00,48.3,46.7,29.90,SW,223,3.0,8.0,94,0.00,,OVC015,0.00,VWS V14.01,2013-12-15 07:21:00,
2013-12-15 02:26:00,48.3,46.7,29.90,NW,308,0.0,8.0,94,0.00,,OVC015,0.00,VWS V14.01,2013-12-15 07:26:00,
2013-12-15 02:30:00,48.3,46.7,29.90,WSW,246,0.0,8.0,94,0.00,,,0.00,VWS V14.01,2013-12-15 07:30:00,
2013-12-15 02:31:00,48.3,46.7,29.90,SW,228,3.0,5.0,94,0.00,,OVC015,0.00,VWS V14.01,2013-12-15 07:31:00,
2013-12-15 02:36:00,48.2,46.6,29.90,WSW,238,1.0,5.0,94,0.00,,BKN022,0.00,VWS V14.01,2013-12-15 07:36:00,
2013-12-15 02:41:00,48.1,46.2,29.90,SSW,199,4.0,7.0,93,0.00,,BKN022,0.00,VWS V14.01,2013-12-15 07:41:00,
2013-12-15 02:46:00,48.0,46.1,29.90,NW,317,1.0,10.0,93,0.00,,BKN022,0.00,VWS V14.01,2013-12-15 07:46:00,
2013-12-15 02:51:00,47.9,46.0,29.90,West,281,3.0,10.0,93,0.00,,BKN022,0.00,VWS V14.01,2013-12-15 07:51:00,
2013-12-15 02:56:00,47.8,45.6,29.91,SW,214,6.0,11.0,92,0.00,,BKN022,0.00,VWS V14.01,2013-12-15 07:56:00,
2013-12-15 03:00:00,47.8,45.6,29.91,West,264,2.0,12.0,92,0.00,,,0.00,VWS V14.01,2013-12-15 08:00:00,
2013-12-15 03:01:00,47.7,45.5,29.91,West,277,4.0,9.0,92,0.00,,BKN022,0.00,VWS V14.01,2013-12-15 08:01:00,
2013-12-15 03:06:00,47.6,45.4,29.91,SSW,192,3.0,9.0,92,0.00,,BKN022,0.00,VWS V14.01,2013-12-15 08:06:00,
2013-12-15 03:11:00,47.5,45.3,29.91,West,266,0.0,9.0,92,0.00,,BKN022,0.00,VWS V14.01,2013-12-15 08:11:00,
2013-12-15 03:16:00,47.4,45.2,29.92,ESE,110,1.0,10.0,92,0.00,,BKN022,0.00,VWS V14.01,2013-12-15 08:16:00,
2013-12-15 03:21:00,47.3,44.8,29.91,WSW,238,6.0,10.0,91,0.00,,BKN022,0.00,VWS V14.01,2013-12-15 08:21:00,
2013-12-15 03:26:00,47.2,44.7,29.91,West,269,2.0,10.0,91,0.00,,BKN022,0.00,VWS V14.01,2013-12-15 08:26:00,
2013-12-15 03:30:00,47.2,45.0,29.91,West,267,2.0,10.0,92,0.00,,,0.00,VWS V14.01,2013-12-15 08:30:00,
2013-12-15 03:31:00,47.0,44.8,29.92,SW,217,4.0,5.0,92,0.00,,BKN022,0.00,VWS V14.01,2013-12-15 08:31:00,
2013-12-15 03:36:00,47.0,44.8,29.92,ENE,65,2.0,8.0,92,0.00,,OVC020,0.00,VWS V14.01,2013-12-15 08:36:00,
2013-12-15 03:41:00,46.9,44.7,29.92,WNW,288,0.0,10.0,92,0.00,,OVC020,0.00,VWS V14.01,2013-12-15 08:41:00,
2013-12-15 03:46:00,46.8,44.3,29.93,WNW,300,5.0,11.0,91,0.00,,OVC020,0.00,VWS V14.01,2013-12-15 08:46:00,
2013-12-15 03:51:00,46.3,44.1,29.93,SW,220,5.0,12.0,92,0.00,,OVC020,0.00,VWS V14.01,2013-12-15 08:51:00,
2013-12-15 03:56:00,46.0,43.8,29.93,West,271,1.0,13.0,92,0.00,,OVC020,0.00,VWS V14.01,2013-12-15 08:56:00,
2013-12-15 04:00:00,45.8,43.6,29.93,SSW,213,0.0,13.0,92,0.00,,,0.00,VWS V14.01,2013-12-15 09:00:00,
2013-12-15 04:01:00,45.6,43.4,29.94,NNE,12,3.0,11.0,92,0.00,,OVC020,0.00,VWS V14.01,2013-12-15 09:01:00,
2013-12-15 04:06:00,45.5,43.3,29.94,WNW,294,1.0,11.0,92,0.00,,OVC020,0.00,VWS V14.01,2013-12-15 09:06:00,
2013-12-15 04:11:00,45.2,43.0,29.94,South,178,0.0,11.0,92,0.00,,OVC020,0.00,VWS V14.01,2013-12-15 09:11:00,
2013-12-15 04:16:00,45.0,42.8,29.94,West,266,3.0,11.0,92,0.00,,OVC020,0.00,VWS V14.01,2013-12-15 09:16:00,
2013-12-15 04:21:00,44.9,42.4,29.94,WSW,254,2.0,11.0,91,0.00,,OVC020,0.00,VWS V14.01,2013-12-15 09:21:00,
2013-12-15 04:26:00,44.8,42.3,29.94,WSW,252,3.0,11.0,91,0.00,,OVC020,0.00,VWS V14.01,2013-12-15 09:26:00,
2013-12-15 04:30:00,44.7,42.2,29.95,WNW,288,3.0,11.0,91,0.00,,,0.00,VWS V14.01,2013-12-15 09:30:00,
2013-12-15 04:31:00,44.6,41.8,29.95,SW,229,4.0,10.0,90,0.00,,OVC020,0.00,VWS V14.01,2013-12-15 09:31:00,
2013-12-15 04:36:00,44.3,41.3,29.95,West,267,0.0,10.0,89,0.00,,OVC027,0.00,VWS V14.01,2013-12-15 09:36:00,
2013-12-15 04:41:00,44.0,41.0,29.95,WSW,256,3.0,10.0,89,0.00,,OVC027,0.00,VWS V14.01,2013-12-15 09:41:00,
2013-12-15 04:46:00,43.7,40.7,29.95,NNE,17,1.0,10.0,89,0.00,,OVC027,0.00,VWS V14.01,2013-12-15 09:46:00,
2013-12-15 04:51:00,43.6,40.3,29.95,North,5,7.0,10.0,88,0.00,,OVC027,0.00,VWS V14.01,2013-12-15 09:51:00,
2013-12-15 04:56:00,43.4,40.1,29.96,WSW,246,4.0,11.0,88,0.00,,OVC027,0.00,VWS V14.01,2013-12-15 09:56:00,
2013-12-15 05:00:00,43.3,40.0,29.96,WSW,238,3.0,11.0,88,0.00,,,0.00,VWS V14.01,2013-12-15 10:00:00,
2013-12-15 05:01:00,43.2,39.6,29.95,WNW,300,3.0,12.0,87,0.00,,OVC027,0.00,VWS V14.01,2013-12-15 10:01:00,
2013-12-15 05:06:00,43.1,39.5,29.96,WSW,255,4.0,19.0,87,0.00,,OVC027,0.00,VWS V14.01,2013-12-15 10:06:00,
2013-12-15 05:11:00,42.9,39.6,29.96,SW,227,1.0,19.0,88,0.00,,OVC027,0.00,VWS V14.01,2013-12-15 10:11:00,
2013-12-15 05:16:00,42.8,39.5,29.97,West,281,3.0,19.0,88,0.00,,OVC027,0.00,VWS V14.01,2013-12-15 10:16:00,
2013-12-15 05:21:00,42.7,39.4,29.97,SW,223,3.0,19.0,88,0.00,,OVC027,0.00,VWS V14.01,2013-12-15 10:21:00,
2013-12-15 05:26:00,42.5,39.5,29.97,NNE,23,3.0,19.0,89,0.00,,OVC027,0.00,VWS V14.01,2013-12-15 10:26:00,
2013-12-15 05:30:00,42.4,39.4,29.97,West,259,1.0,19.0,89,0.00,,,0.00,VWS V14.01,2013-12-15 10:30:00,
2013-12-15 05:31:00,42.3,39.6,29.97,WNW,292,2.0,5.0,90,0.00,,OVC027,0.00,VWS V14.01,2013-12-15 10:31:00,
2013-12-15 05:36:00,42.2,39.5,29.98,NE,41,6.0,6.0,90,0.00,,OVC013,0.00,VWS V14.01,2013-12-15 10:36:00,
2013-12-15 05:41:00,42.0,39.3,29.98,WSW,252,6.0,6.0,90,0.00,,OVC013,0.00,VWS V14.01,2013-12-15 10:41:00,
2013-12-15 05:46:00,41.9,38.9,29.99,NNE,13,6.0,9.0,89,0.00,,OVC013,0.00,VWS V14.01,2013-12-15 10:46:00,
2013-12-15 05:51:00,41.8,38.8,29.99,South,186,0.0,11.0,89,0.00,,OVC013,0.00,VWS V14.01,2013-12-15 10:51:00,
2013-12-15 05:56:00,41.6,38.6,29.99,SW,225,1.0,11.0,89,0.00,,OVC013,0.00,VWS V14.01,2013-12-15 10:56:00,
2013-12-15 06:00:00,41.6,38.6,29.99,WSW,254,2.0,11.0,89,0.00,,,0.00,VWS V14.01,2013-12-15 11:00:00,
2013-12-15 06:01:00,41.6,38.6,29.99,NW,305,3.0,9.0,89,0.00,,OVC013,0.00,VWS V14.01,2013-12-15 11:01:00,
2013-12-15 06:06:00,41.5,38.5,30.00,WSW,240,2.0,9.0,89,0.00,,OVC013,0.00,VWS V14.01,2013-12-15 11:06:00,
2013-12-15 06:11:00,41.3,38.0,30.00,WSW,240,5.0,11.0,88,0.00,,OVC013,0.00,VWS V14.01,2013-12-15 11:11:00,
2013-12-15 06:16:00,41.2,38.2,30.00,WSW,254,4.0,11.0,89,0.00,,OVC013,0.00,VWS V14.01,2013-12-15 11:16:00,
2013-12-15 06:21:00,41.1,38.1,30.00,West,274,8.0,11.0,89,0.00,,OVC013,0.00,VWS V14.01,2013-12-15 11:21:00,
2013-12-15 06:26:00,40.9,37.9,30.00,WSW,247,3.0,11.0,89,0.00,,OVC013,0.00,VWS V14.01,2013-12-15 11:26:00,
2013-12-15 06:30:00,40.8,38.1,30.00,WSW,246,5.0,11.0,90,0.00,,,0.00,VWS V14.01,2013-12-15 11:30:00,
2013-12-15 06:31:00,40.7,38.0,30.00,WSW,253,3.0,5.0,90,0.00,,OVC013,0.00,VWS V14.01,2013-12-15 11:31:00,
2013-12-15 06:36:00,40.5,37.8,30.00,SW,226,0.0,6.0,90,0.00,,OVC020,0.00,VWS V14.01,2013-12-15 11:36:00,
2013-12-15 06:41:00,40.4,37.7,30.00,NNE,28,1.0,9.0,90,0.00,,OVC020,0.00,VWS V14.01,2013-12-15 11:41:00,
2013-12-15 06:46:00,40.3,37.6,30.01,NW,312,3.0,9.0,90,0.00,,OVC020,0.00,VWS V14.01,2013-12-15 11:46:00,
2013-12-15 06:51:00,40.2,37.5,30.01,West,266,0.0,9.0,90,0.00,,OVC020,0.00,VWS V14.01,2013-12-15 11:51:00,
2013-12-15 06:56:00,40.1,37.1,30.02,NW,323,4.0,10.0,89,0.00,,OVC020,0.00,VWS V14.01,2013-12-15 11:56:00,
2013-12-15 07:00:00,40.1,37.1,30.02,NNW,342,0.0,10.0,89,0.00,,,0.00,VWS V14.01,2013-12-15 12:00:00,
2013-12-15 07:01:00,40.1,36.5,30.02,WSW,238,1.0,14.0,87,0.00,,OVC020,0.00,VWS V14.01,2013-12-15 12:01:00,
2013-12-15 07:06:00,40.0,36.5,30.02,WSW,257,1.0,14.0,87,0.00,,OVC020,0.00,VWS V14.01,2013-12-15 12:06:00,
2013-12-15 07:11:00,40.0,36.2,30.02,WSW,241,1.0,14.0,86,0.00,,OVC020,0.00,VWS V14.01,2013-12-15 12:11:00,
2013-12-15 07:16:00,39.9,35.8,30.03,NE,49,1.0,14.0,85,0.00,,OVC020,0.00,VWS V14.01,2013-12-15 12:16:00,
2013-12-15 07:21:00,39.9,35.8,30.03,WNW,284,4.0,14.0,85,0.00,,OVC020,0.00,VWS V14.01,2013-12-15 12:21:00,
2013-12-15 07:26:00,39.8,35.4,30.03,NE,53,0.0,14.0,84,0.00,,OVC020,0.00,VWS V14.01,2013-12-15 12:26:00,
2013-12-15 07:30:00,39.8,35.4,30.03,West,267,4.0,14.0,84,0.00,,,0.00,VWS V14.01,2013-12-15 12:30:00,
2013-12-15 07:31:00,39.8,35.4,30.04,SW,230,4.0,5.0,84,0.00,,OVC020,0.00,VWS V14.01,2013-12-15 12:31:00,
2013-12-15 07:36:00,39.8,35.1,30.04,WNW,303,14.0,14.0,83,0.00,,OVC036,0.00,VWS V14.01,2013-12-15 12:36:00,
2013-12-15 07:41:00,39.7,35.0,30.04,West,275,3.0,14.0,83,0.00,,OVC036,0.00,VWS V14.01,2013-12-15 12:41:00,
2013-12-15 07:46:00,39.7,35.3,30.05,NW,310,0.0,14.0,84,0.00,,OVC036,0.00,VWS V14.01,2013-12-15 12:46:00,
2013-12-15 07:51:00,39.6,34.9,30.05,West,263,2.0,14.0,83,0.00,,OVC036,0.00,VWS V14.01,2013-12-15 12:51:00,
2013-12-15 07:56:00,39.6,35.2,30.05,SW,228,2.0,14.0,84,0.00,,OVC036,0.00,VWS V14.01,2013-12-15 12:56:00,
2013-12-15 08:00:00,39.5,34.8,30.05,West,260,11.0,14.0,83,0.00,,,0.00,VWS V14.01,2013-12-15 13:00:00,
2013-12-15 08:01:00,39.5,34.8,30.05,West,275,3.0,13.0,83,0.00,,OVC036,0.00,VWS V14.01,2013-12-15 13:01:00,
2013-12-15 08:06:00,39.5,34.8,30.06,SW,223,1.0,13.0,83,0.00,,OVC036,0.00,VWS V14.01,2013-12-15 13:06:00,
2013-12-15 08:11:00,39.4,34.4,30.06,North,9,1.0,14.0,82,0.00,,OVC036,0.00,VWS V14.01,2013-12-15 13:11:00,
2013-12-15 08:16:00,39.4,34.1,30.06,South,176,10.0,14.0,81,0.00,,OVC036,0.00,VWS V14.01,2013-12-15 13:16:00,
2013-12-15 08:21:00,39.3,34.0,30.07,NW,309,3.0,14.0,81,0.00,,OVC036,0.00,VWS V14.01,2013-12-15 13:21:00,
2013-12-15 08:26:00,39.4,34.4,30.07,WNW,294,4.0,14.0,82,0.00,,OVC036,0.00,VWS V14.01,2013-12-15 13:26:00,
2013-12-15 08:30:00,39.3,34.0,30.08,WNW,284,5.0,14.0,81,0.00,,,0.00,VWS V14.01,2013-12-15 13:30:00,
2013-12-15 08:31:00,39.3,34.3,30.08,SW,225,8.0,8.0,82,0.00,,OVC036,0.00,VWS V14.01,2013-12-15 13:31:00,
2013-12-15 08:36:00,39.3,34.3,30.08,WNW,285,1.0,9.0,82,0.00,,OVC027,0.00,VWS V14.01,2013-12-15 13:36:00,
2013-12-15 08:41:00,39.3,34.3,30.08,West,275,2.0,11.0,82,0.00,,OVC027,0.00,VWS V14.01,2013-12-15 13:41:00,
2013-12-15 08:46:00,39.2,34.2,30.08,West,269,6.0,11.0,82,0.00,,OVC027,0.00,VWS V14.01,2013-12-15 13:46:00,
2013-12-15 08:51:00,39.2,34.2,30.09,NNW,334,2.0,11.0,82,0.00,,OVC027,0.00,VWS V14.01,2013-12-15 13:51:00,
2013-12-15 08:56:00,39.1,34.1,30.09,West,275,3.0,13.0,82,0.00,,OVC027,0.00,VWS V14.01,2013-12-15 13:56:00,
2013-12-15 09:00:00,39.1,34.1,30.09,NNW,329,9.0,13.0,82,0.00,,,0.00,VWS V14.01,2013-12-15 14:00:00,
2013-12-15 09:01:00,39.0,34.0,30.09,SW,229,3.0,9.0,82,0.00,,OVC027,0.00,VWS V14.01,2013-12-15 14:01:00,
2013-12-15 09:06:00,38.8,33.8,30.10,NNE,19,5.0,11.0,82,0.00,,OVC027,0.00,VWS V14.01,2013-12-15 14:06:00,
2013-12-15 09:11:00,38.7,33.7,30.10,WSW,237,4.0,11.0,82,0.00,,OVC027,0.00,VWS V14.01,2013-12-15 14:11:00,
2013-12-15 09:16:00,38.7,33.7,30.10,NW,307,0.0,11.0,82,0.00,,OVC027,0.00,VWS V14.01,2013-12-15 14:16:00,
2013-12-15 09:21:00,38.7,34.0,30.10,NW,322,4.0,11.0,83,0.00,,OVC027,0.00,VWS V14.01,2013-12-15 14:21:00,
2013-12-15 09:26:00,38.6,33.6,30.10,WSW,254,3.0,11.0,82,0.00,,OVC027,0.00,VWS V14.01,2013-12-15 14:26:00,
2013-12-15 09:30:00,38.6,33.9,30.11,West,276,0.0,11.0,83,0.00,,,0.00,VWS V14.01,2013-12-15 14:30:00,
2013-12-15 09:31:00,38.6,33.9,30.11,NE,36,1.0,6.0,83,0.00,,OVC027,0.00,VWS V14.01,2013-12-15 14:31:00,
2013-12-15 09:36:00,38.6,33.6,30.11,West,263,0.0,11.0,82,0.00,,OVC023,0.00,VWS V14.01,2013-12-15 14:36:00,
2013-12-15 09:41:00,38.6,33.6,30.11,WNW,296,0.0,11.0,82,0.00,,OVC023,0.00,VWS V14.01,2013-12-15 14:41:00,
2013-12-15 09:46:00,38.7,34.0,30.12,WSW,249,3.0,11.0,83,0.00,,OVC023,0.00,VWS V14.01,2013-12-15 14:46:00,
2013-12-15 09:51:00,38.8,33.8,30.12,West,270,3.0,11.0,82,0.00,,OVC023,0.00,VWS V14.01,2013-12-15 14:51:00,
2013-12-15 09:56:00,38.7,33.7,30.13,WNW,283,7.0,11.0,82,0.00,,OVC023,0.00,VWS V14.01,2013-12-15 14:56:00,
2013-12-15 10:00:00,38.6,33.6,30.13,West,278,1.0,14.0,82,0.00,,,0.00,VWS V14.01,2013-12-15 15:00:00,
2013-12-15 10:01:00,38.6,33.6,30.13,WSW,245,5.0,7.0,82,0.00,,OVC023,0.00,VWS V14.01,2013-12-15 15:01:00,
2013-12-15 10:06:00,38.6,33.3,30.13,SW,232,3.0,15.0,81,0.00,,OVC023,0.00,VWS V14.01,2013-12-15 15:06:00,
2013-12-15 10:11:00,38.7,33.4,30.14,WSW,242,1.0,15.0,81,0.00,,OVC023,0.00,VWS V14.01,2013-12-15 15:11:00,
2013-12-15 10:16:00,38.8,33.2,30.14,ESE,120,0.0,15.0,80,0.00,,OVC023,0.00,VWS V14.01,2013-12-15 15:16:00,
2013-12-15 10:21:00,38.8,33.2,30.13,WSW,250,10.0,15.0,80,0.00,,OVC023,0.00,VWS V14.01,2013-12-15 15:21:00,
2013-12-15 10:26:00,38.8,33.5,30.14,WNW,285,0.0,15.0,81,0.00,,OVC023,0.00,VWS V14.01,2013-12-15 15:26:00,
2013-12-15 10:30:00,38.8,33.2,30.14,WSW,252,2.0,15.0,80,0.00,,,0.00,VWS V14.01,2013-12-15 15:30:00,
2013-12-15 10:31:00,38.8,33.2,30.14,WSW,257,6.0,10.0,80,0.00,,OVC023,0.00,VWS V14.01,2013-12-15 15:31:00,
2013-12-15 10:36:00,38.9,33.3,30.14,West,272,3.0,15.0,80,0.00,,OVC021,0.00,VWS V14.01,2013-12-15 15:36:00,
2013-12-15 10:41:00,38.9,33.0,30.14,WSW,255,3.0,15.0,79,0.00,,OVC021,0.00,VWS V14.01,2013-12-15 15:41:00,
2013-12-15 10:46:00,38.8,32.9,30.14,WSW,251,3.0,15.0,79,0.00,,OVC021,0.00,VWS V14.01,2013-12-15 15:46:00,
2013-12-15 10:51:00,38.9,33.3,30.14,NNE,26,8.0,15.0,80,0.00,,OVC021,0.00,VWS V14.01,2013-12-15 15:51:00,
2013-12-15 10:56:00,38.9,33.0,30.14,SW,226,5.0,15.0,79,0.00,,OVC021,0.00,VWS V14.01,2013-12-15 15:56:00,
2013-12-15 11:00:00,39.0,33.4,30.14,WSW,254,5.0,15.0,80,0.00,,,0.00,VWS V14.01,2013-12-15 16:00:00,
2013-12-15 11:01:00,39.1,33.2,30.13,WSW,254,5.0,9.0,79,0.00,,OVC021,0.00,VWS V14.01,2013-12-15 16:01:00,
2013-12-15 11:06:00,39.3,33.3,30.14,West,271,2.0,9.0,79,0.00,,OVC021,0.00,VWS V14.01,2013-12-15 16:06:00,
2013-12-15 11:11:00,39.3,33.3,30.14,North,5,5.0,13.0,79,0.00,,OVC021,0.00,VWS V14.01,2013-12-15 16:11:00,
2013-12-15 11:16:00,39.5,33.5,30.14,West,277,3.0,13.0,79,0.00,,OVC021,0.00,VWS V14.01,2013-12-15 16:16:00,
2013-12-15 11:21:00,39.7,33.7,30.14,SW,221,4.0,13.0,79,0.00,,OVC021,0.00,VWS V14.01,2013-12-15 16:21:00,
2013-12-15 11:26:00,39.5,33.5,30.14,NNW,338,4.0,13.0,79,0.00,,OVC021,0.00,VWS V14.01,2013-12-15 16:26:00,
2013-12-15 11:30:00,39.5,33.5,30.14,SW,236,3.0,13.0,79,0.00,,,0.00,VWS V14.01,2013-12-15 16:30:00,
2013-12-15 11:31:00,39.7,33.7,30.14,NE,38,1.0,5.0,79,0.00,,OVC021,0.00,VWS V14.01,2013-12-15 16:31:00,
2013-12-15 12:00:00,40.1,33.5,30.13,WSW,248,4.0,13.0,77,0.00,,,0.00,VWS V14.01,2013-12-15 17:00:00,
2013-12-15 12:30:00,40.3,32.7,30.14,WSW,248,4.0,20.0,74,0.00,,,0.00,VWS V14.01,2013-12-15 17:30:00,
2013-12-15 13:00:00,39.9,32.6,30.13,WSW,248,4.0,19.0,75,0.00,,,0.00,VWS V14.01,2013-12-15 18:00:00,
2013-12-15 13:30:00,40.5,33.2,30.14,WNW,294,2.0,11.0,75,0.00,,CLR,0.00,VWS V15.00,2013-12-15 18:30:00,
2013-12-15 13:39:00,40.6,32.6,30.13,WNW,301,1.0,4.0,73,0.00,,,0.00,VWS V14.01,2013-12-15 18:39:00,
2013-12-15 13:44:00,40.5,32.5,30.13,WNW,282,3.0,10.0,73,0.00,,OVC023,0.00,VWS V14.01,2013-12-15 18:44:00,
2013-12-15 13:49:00,40.9,32.6,30.13,WSW,257,6.0,11.0,72,0.00,,OVC023,0.00,VWS V14.01,2013-12-15 18:49:00,
2013-12-15 13:54:00,41.0,32.7,30.13,SSW,205,0.0,11.0,72,0.00,,OVC023,0.00,VWS V14.01,2013-12-15 18:54:00,
2013-12-15 13:59:00,41.5,33.5,30.13,North,9,2.0,5.0,73,0.00,,OVC023,0.00,VWS V14.01,2013-12-15 18:59:00,
2013-12-15 14:00:00,41.4,33.4,30.13,NW,320,4.0,11.0,73,0.00,,CLR,0.00,VWS V15.00,2013-12-15 19:00:00,
2013-12-15 14:04:00,41.4,32.7,30.14,SW,228,2.0,11.0,71,0.00,,OVC023,0.00,VWS V14.01,2013-12-15 19:04:00,
2013-12-15 14:09:00,40.6,32.3,30.14,SW,234,4.0,11.0,72,0.00,,OVC023,0.00,VWS V14.01,2013-12-15 19:09:00,
2013-12-15 14:14:00,40.5,32.5,30.14,SW,223,3.0,11.0,73,0.00,,OVC023,0.00,VWS V14.01,2013-12-15 19:14:00,
2013-12-15 14:19:00,40.3,32.7,30.14,NNW,346,2.0,11.0,74,0.00,,OVC023,0.00,VWS V14.01,2013-12-15 19:19:00,
2013-12-15 14:24:00,40.5,32.9,30.14,WSW,251,3.0,11.0,74,0.00,,OVC023,0.00,VWS V14.01,2013-12-15 19:24:00,
2013-12-15 14:29:00,40.5,33.2,30.14,SSW,201,1.0,3.0,75,0.00,,OVC023,0.00,VWS V14.01,2013-12-15 19:29:00,
2013-12-15 14:30:00,40.5,33.2,30.14,WNW,294,2.0,11.0,75,0.00,,CLR,0.00,VWS V15.00,2013-12-15 19:30:00,
2013-12-15 14:34:00,40.3,32.3,30.14,SW,221,2.0,9.0,73,0.00,,OVC023,0.00,VWS V14.01,2013-12-15 19:34:00,
2013-12-15 14:39:00,40.0,32.4,30.14,West,276,3.0,12.0,74,0.00,,BKN025,0.00,VWS V14.01,2013-12-15 19:39:00,
2013-12-15 14:44:00,40.0,33.1,30.14,WSW,256,0.0,12.0,76,0.00,,BKN025,0.00,VWS V14.01,2013-12-15 19:44:00,
2013-12-15 14:47:00,40.0,32.7,30.14,North,350,1.0,12.0,75,0.00,,BKN025,0.00,VWS V14.01,2013-12-15 19:47:00,
2013-12-15 14:52:00,40.0,33.1,30.14,West,272,6.0,12.0,76,0.00,,BKN025,0.00,VWS V14.01,2013-12-15 19:52:00,
2013-12-15 14:57:00,39.6,32.7,30.14,NNE,17,10.0,12.0,76,0.00,,BKN025,0.00,VWS V14.01,2013-12-15 19:57:00,
2013-12-15 15:00:00,39.4,32.2,30.15,NNE,13,2.0,12.0,75,0.00,,CLR,0.00,VWS V15.00,2013-12-15 20:00:00,
2013-12-15 15:02:00,39.1,31.9,30.14,WNW,290,0.0,10.0,75,0.00,,BKN025,0.00,VWS V14.01,2013-12-15 20:02:00,
2013-12-15 15:07:00,38.9,32.0,30.15,SW,236,5.0,12.0,76,0.00,,BKN025,0.00,VWS V14.01,2013-12-15 20:07:00,
2013-12-15 15:12:00,38.7,32.1,30.15,West,277,9.0,12.0,77,0.00,,BKN025,0.00,VWS V14.01,2013-12-15 20:12:00,
2013-12-15 15:17:00,38.5,31.9,30.15,WSW,257,2.0,12.0,77,0.00,,BKN025,0.00,VWS V14.01,2013-12-15 20:17:00,
2013-12-15 15:22:00,38.4,32.2,30.15,ENE,63,0.0,12.0,78,0.00,,BKN025,0.00,VWS V14.01,2013-12-15 20:22:00,
2013-12-15 15:27:00,38.4,32.2,30.16,West,269,2.0,12.0,78,0.00,,BKN025,0.00,VWS V14.01,2013-12-15 20:27:00,
2013-12-15 15:30:00,38.4,32.5,30.16,WSW,249,1.0,12.0,79,0.00,,CLR,0.00,VWS V14.01,2013-12-15 20:30:00,
2013-12-15 15:32:00,38.3,32.0,30.16,North,351,0.0,3.0,78,0.00,,BKN025,0.00,VWS V14.01,2013-12-15 20:32:00,
2013-12-15 15:37:00,38.1,31.9,30.16,SSW,202,8.0,8.0,78,0.00,,OVC019,0.00,VWS V14.01,2013-12-15 20:37:00,
2013-12-15 15:42:00,38.0,31.8,30.16,WSW,242,1.0,8.0,78,0.00,,OVC019,0.00,VWS V14.01,2013-12-15 20:42:00,
2013-12-15 15:47:00,37.9,31.7,30.17,NNW,332,0.0,8.0,78,0.00,,OVC019,0.00,VWS V14.01,2013-12-15 20:47:00,
2013-12-15 15:52:00,38.0,32.1,30.17,WSW,246,1.0,8.0,79,0.00,,OVC019,0.00,VWS V14.01,2013-12-15 20:52:00,
2013-12-15 15:57:00,38.0,31.8,30.17,SW,230,3.0,8.0,78,0.00,,OVC019,0.00,VWS V14.01,2013-12-15 20:57:00,
2013-12-15 16:00:00,38.0,31.8,30.17,WSW,242,9.0,9.0,78,0.00,,CLR,0.00,VWS V15.00,2013-12-15 21:00:00,
2013-12-15 16:02:00,38.0,31.8,30.17,SSW,196,1.0,9.0,78,0.00,,OVC019,0.00,VWS V14.01,2013-12-15 21:02:00,
2013-12-15 16:07:00,38.1,31.9,30.17,NNW,331,1.0,10.0,78,0.00,,OVC019,0.00,VWS V14.01,2013-12-15 21:07:00,
2013-12-15 16:12:00,38.2,31.6,30.17,NNW,340,3.0,11.0,77,0.00,,OVC019,0.00,VWS V14.01,2013-12-15 21:12:00,
2013-12-15 16:17:00,38.3,31.7,30.17,West,276,0.0,11.0,77,0.00,,OVC019,0.00,VWS V14.01,2013-12-15 21:17:00,
2013-12-15 16:22:00,38.2,31.3,30.18,WSW,241,0.0,11.0,76,0.00,,OVC019,0.00,VWS V14.01,2013-12-15 21:22:00,
2013-12-15 16:27:00,38.0,31.1,30.19,West,273,7.0,13.0,76,0.00,,OVC019,0.00,VWS V14.01,2013-12-15 21:27:00,
2013-12-15 16:30:00,37.9,30.7,30.19,WSW,244,3.0,13.0,75,0.00,,CLR,0.00,VWS V15.00,2013-12-15 21:30:00,
2013-12-15 16:32:00,37.7,30.8,30.18,West,279,3.0,8.0,76,0.00,,OVC019,0.00,VWS V14.01,2013-12-15 21:32:00,
2013-12-15 16:37:00,37.6,30.7,30.19,West,261,4.0,12.0,76,0.00,,OVC023,0.00,VWS V14.01,2013-12-15 21:37:00,
2013-12-15 16:42:00,37.5,30.6,30.19,WNW,293,9.0,12.0,76,0.00,,OVC023,0.00,VWS V14.01,2013-12-15 21:42:00,
2013-12-15 16:47:00,37.5,31.0,30.19,North,355,9.0,12.0,77,0.00,,OVC023,0.00,VWS V14.01,2013-12-15 21:47:00,
2013-12-15 16:52:00,37.4,30.9,30.19,West,280,0.0,12.0,77,0.00,,OVC023,0.00,VWS V14.01,2013-12-15 21:52:00,
2013-12-15 16:57:00,37.4,31.2,30.19,NNW,335,4.0,12.0,78,0.00,,OVC023,0.00,VWS V14.01,2013-12-15 21:57:00,
2013-12-15 17:00:00,37.4,31.2,30.19,SW,234,6.0,12.0,78,0.00,,CLR,0.00,VWS V15.00,2013-12-15 22:00:00,
2013-12-15 17:02:00,37.4,30.9,30.19,West,271,3.0,10.0,77,0.00,,OVC023,0.00,VWS V14.01,2013-12-15 22:02:00,
2013-12-15 17:07:00,37.4,31.2,30.20,NE,46,1.0,10.0,78,0.00,,OVC023,0.00,VWS V14.01,2013-12-15 22:07:00,
2013-12-15 17:12:00,37.4,31.2,30.20,NNW,346,0.0,10.0,78,0.00,,OVC023,0.00,VWS V14.01,2013-12-15 22:12:00,
2013-12-15 17:17:00,37.4,31.5,30.20,West,263,3.0,10.0,79,0.00,,OVC023,0.00,VWS V14.01,2013-12-15 22:17:00,
2013-12-15 17:22:00,37.3,31.1,30.20,NW,316,0.0,10.0,78,0.00,,OVC023,0.00,VWS V14.01,2013-12-15 22:22:00,
2013-12-15 17:27:00,37.2,31.0,30.20,West,261,0.0,10.0,78,0.00,,OVC023,0.00,VWS V14.01,2013-12-15 22:27:00,
2013-12-15 17:30:00,37.1,30.9,30.20,West,264,2.0,10.0,78,0.00,,CLR,0.00,VWS V14.01,2013-12-15 22:30:00,
2013-12-15 17:32:00,37.0,30.8,30.20,WSW,257,1.0,6.0,78,0.00,,OVC023,0.00,VWS V14.01,2013-12-15 22:32:00,
2013-12-15 17:37:00,36.9,31.0,30.20,SW,236,1.0,6.0,79,0.00,,OVC021,0.00,VWS V14.01,2013-12-15 22:37:00,
2013-12-15 17:42:00,36.8,31.2,30.20,WSW,256,0.0,6.0,80,0.00,,OVC021,0.00,VWS V14.01,2013-12-15 22:42:00,
2013-12-15 17:47:00,36.7,31.1,30.20,WNW,288,2.0,8.0,80,0.00,,OVC021,0.00,VWS V14.01,2013-12-15 22:47:00,
2013-12-15 17:52:00,36.6,31.0,30.20,West,267,0.0,8.0,80,0.00,,OVC021,0.00,VWS V14.01,2013-12-15 22:52:00,
2013-12-15 17:57:00,36.6,31.0,30.21,SW,236,6.0,8.0,80,0.00,,OVC021,0.00,VWS V14.01,2013-12-15 22:57:00,
2013-12-15 18:00:00,36.6,31.0,30.21,West,269,0.0,8.0,80,0.00,,CLR,0.00,VWS V14.01,2013-12-15 23:00:00,
2013-12-15 18:02:00,36.6,31.3,30.21,West,266,1.0,3.0,81,0.00,,OVC021,0.00,VWS V14.01,2013-12-15 23:02:00,
2013-12-15 18:07:00,36.4,31.1,30.21,NW,307,0.0,4.0,81,0.00,,OVC021,0.00,VWS V14.01,2013-12-15 23:07:00,
2013-12-15 18:12:00,36.3,31.0,30.22,West,280,0.0,6.0,81,0.00,,OVC021,0.00,VWS V14.01,2013-12-15 23:12:00,
2013-12-15 18:16:00,36.2,31.2,30.22,WSW,254,0.0,6.0,82,0.00,,OVC021,0.00,VWS V14.01,2013-12-15 23:16:00,
2013-12-15 18:21:00,36.2,31.2,30.22,NNW,341,1.0,6.0,82,0.00,,OVC021,0.00,VWS V14.01,2013-12-15 23:21:00,
2013-12-15 18:26:00,36.1,30.8,30.22,WNW,286,0.0,6.0,81,0.00,,OVC021,0.00,VWS V14.01,2013-12-15 23:26:00,
2013-12-15 18:30:00,36.1,31.1,30.22,NW,306,0.0,6.0,82,0.00,,CLR,0.00,VWS V14.01,2013-12-15 23:30:00,
2013-12-15 18:31:00,36.1,31.1,30.22,SW,227,0.0,3.0,82,0.00,,OVC021,0.00,VWS V14.01,2013-12-15 23:31:00,
2013-12-15 18:36:00,36.0,31.0,30.22,NW,309,0.0,3.0,82,0.00,,SCT021,0.00,VWS V14.01,2013-12-15 23:36:00,
2013-12-15 18:41:00,35.8,30.9,30.22,North,5,1.0,3.0,82,0.00,,SCT021,0.00,VWS V14.01,2013-12-15 23:41:00,
2013-12-15 18:46:00,35.7,30.8,30.22,NNE,33,0.0,7.0,82,0.00,,SCT021,0.00,VWS V14.01,2013-12-15 23:46:00,
2013-12-15 18:51:00,35.6,30.7,30.22,West,267,1.0,7.0,82,0.00,,SCT021,0.00,VWS V14.01,2013-12-15 23:51:00,
2013-12-15 18:56:00,35.5,30.6,30.22,WSW,247,0.0,7.0,82,0.00,,SCT021,0.00,VWS V14.01,2013-12-15 23:56:00,
2013-12-15 19:00:00,35.5,30.6,30.22,WSW,247,0.0,7.0,82,0.00,,CLR,0.00,VWS V15.00,2013-12-16 00:00:00,
2013-12-15 19:01:00,35.4,30.5,30.22,West,269,0.0,2.0,82,0.00,,SCT021,0.00,VWS V14.01,2013-12-16 00:01:00,
2013-12-15 19:06:00,35.2,30.6,30.22,SW,230,0.0,2.0,83,0.00,,CLR,0.00,VWS V14.01,2013-12-16 00:06:00,
2013-12-15 19:11:00,35.1,30.5,30.23,WSW,254,0.0,4.0,83,0.00,,CLR,0.00,VWS V14.01,2013-12-16 00:11:00,
2013-12-15 19:16:00,35.1,30.5,30.23,WNW,292,3.0,5.0,83,0.00,,CLR,0.00,VWS V14.01,2013-12-16 00:16:00,
2013-12-15 19:21:00,35.0,30.7,30.23,NNW,339,3.0,5.0,84,0.00,,CLR,0.00,VWS V14.01,2013-12-16 00:21:00,
2013-12-15 19:26:00,35.0,30.4,30.23,SW,234,0.0,5.0,83,0.00,,CLR,0.00,VWS V14.01,2013-12-16 00:26:00,
2013-12-15 19:30:00,34.9,30.6,30.23,SW,234,0.0,5.0,84,0.00,,CLR,0.00,VWS V14.01,2013-12-16 00:30:00,
2013-12-15 19:31:00,34.8,30.5,30.23,SW,234,0.0,0.0,84,0.00,,CLR,0.00,VWS V14.01,2013-12-16 00:31:00,
2013-12-15 19:36:00,34.7,30.4,30.23,West,269,0.0,2.0,84,0.00,,CLR,0.00,VWS V14.01,2013-12-16 00:36:00,
2013-12-15 19:41:00,34.6,30.3,30.24,West,274,1.0,2.0,84,0.00,,CLR,0.00,VWS V14.01,2013-12-16 00:41:00,
2013-12-15 19:46:00,34.6,30.3,30.24,West,274,0.0,2.0,84,0.00,,CLR,0.00,VWS V14.01,2013-12-16 00:46:00,
2013-12-15 19:51:00,34.5,30.5,30.23,SSW,198,0.0,2.0,85,0.00,,CLR,0.00,VWS V14.01,2013-12-16 00:51:00,
2013-12-15 19:56:00,34.4,30.4,30.24,WSW,237,0.0,4.0,85,0.00,,CLR,0.00,VWS V14.01,2013-12-16 00:56:00,
2013-12-15 20:00:00,34.4,30.4,30.24,WSW,237,0.0,4.0,85,0.00,,CLR,0.00,VWS V14.01,2013-12-16 01:00:00,
2013-12-15 20:01:00,34.4,30.4,30.24,WSW,237,0.0,2.0,85,0.00,,CLR,0.00,VWS V14.01,2013-12-16 01:01:00,
2013-12-15 20:06:00,34.3,30.3,30.24,WSW,237,0.0,2.0,85,0.00,,CLR,0.00,VWS V14.01,2013-12-16 01:06:00,
2013-12-15 20:11:00,34.2,30.5,30.24,NW,309,0.0,2.0,86,0.00,,CLR,0.00,VWS V14.01,2013-12-16 01:11:00,
2013-12-15 20:16:00,34.1,30.4,30.24,WNW,299,0.0,2.0,86,0.00,,CLR,0.00,VWS V14.01,2013-12-16 01:16:00,
2013-12-15 20:21:00,34.1,30.4,30.24,West,271,0.0,3.0,86,0.00,,CLR,0.00,VWS V14.01,2013-12-16 01:21:00,
2013-12-15 20:26:00,34.1,30.4,30.25,West,271,0.0,3.0,86,0.00,,CLR,0.00,VWS V14.01,2013-12-16 01:26:00,
2013-12-15 20:30:00,34.1,30.6,30.25,West,271,0.0,3.0,87,0.00,,CLR,0.00,VWS V14.01,2013-12-16 01:30:00,
2013-12-15 20:31:00,34.1,30.4,30.25,West,271,0.0,1.0,86,0.00,,CLR,0.00,VWS V14.01,2013-12-16 01:31:00,
2013-12-15 20:36:00,34.1,30.6,30.25,WNW,290,1.0,4.0,87,0.00,,FEW019,0.00,VWS V14.01,2013-12-16 01:36:00,
2013-12-15 20:41:00,34.1,30.4,30.25,West,278,0.0,4.0,86,0.00,,FEW019,0.00,VWS V14.01,2013-12-16 01:41:00,
2013-12-15 20:46:00,34.1,30.6,30.25,West,278,0.0,4.0,87,0.00,,FEW019,0.00,VWS V14.01,2013-12-16 01:46:00,
2013-12-15 20:51:00,34.1,30.4,30.25,West,276,0.0,4.0,86,0.00,,FEW019,0.00,VWS V14.01,2013-12-16 01:51:00,
2013-12-15 20:56:00,34.0,30.3,30.25,West,276,0.0,4.0,86,0.00,,FEW019,0.00,VWS V14.01,2013-12-16 01:56:00,
2013-12-15 21:00:00,33.9,30.2,30.25,West,270,3.0,4.0,86,0.00,,CLR,0.00,VWS V14.01,2013-12-16 02:00:00,
2013-12-15 21:01:00,33.9,30.5,30.25,SW,225,0.0,3.0,87,0.00,,FEW019,0.00,VWS V14.01,2013-12-16 02:01:00,
2013-12-15 21:06:00,33.9,30.2,30.25,SW,225,0.0,3.0,86,0.00,,FEW019,0.00,VWS V14.01,2013-12-16 02:06:00,
2013-12-15 21:11:00,33.8,30.1,30.26,West,268,3.0,3.0,86,0.00,,FEW019,0.00,VWS V14.01,2013-12-16 02:11:00,
2013-12-15 21:16:00,33.8,30.1,30.25,West,261,0.0,4.0,86,0.00,,FEW019,0.00,VWS V14.01,2013-12-16 02:16:00,
2013-12-15 21:21:00,33.7,30.2,30.25,NW,317,0.0,4.0,87,0.00,,FEW019,0.00,VWS V14.01,2013-12-16 02:21:00,
2013-12-15 21:26:00,33.5,30.0,30.26,WSW,250,3.0,4.0,87,0.00,,FEW019,0.00,VWS V14.01,2013-12-16 02:26:00,
2013-12-15 21:30:00,33.5,30.0,30.25,WNW,286,0.0,4.0,87,0.00,,CLR,0.00,VWS V14.01,2013-12-16 02:30:00,
2013-12-15 21:31:00,33.5,30.0,30.25,WNW,284,2.0,2.0,87,0.00,,FEW019,0.00,VWS V14.01,2013-12-16 02:31:00,
2013-12-15 21:36:00,33.5,29.8,30.25,WSW,250,0.0,6.0,86,0.00,,CLR,0.00,VWS V14.01,2013-12-16 02:36:00,
2013-12-15 21:41:00,33.5,30.0,30.25,West,281,0.0,6.0,87,0.00,,CLR,0.00,VWS V14.01,2013-12-16 02:41:00,
2013-12-15 21:46:00,33.4,30.0,30.25,NW,319,0.0,6.0,87,0.00,,CLR,0.00,VWS V14.01,2013-12-16 02:46:00,
2013-12-15 21:51:00,33.4,29.7,30.25,NNE,19,0.0,6.0,86,0.00,,CLR,0.00,VWS V14.01,2013-12-16 02:51:00,
2013-12-15 21:56:00,33.4,29.7,30.25,NNW,331,0.0,6.0,86,0.00,,CLR,0.00,VWS V14.01,2013-12-16 02:56:00,
2013-12-15 22:00:00,33.3,29.9,30.25,NNW,331,0.0,6.0,87,0.00,,CLR,0.00,VWS V14.01,2013-12-16 03:00:00,
2013-12-15 22:01:00,33.3,29.9,30.25,NNW,331,0.0,0.0,87,0.00,,CLR,0.00,VWS V14.01,2013-12-16 03:01:00,
2013-12-15 22:06:00,33.1,29.9,30.25,NNW,331,0.0,0.0,88,0.00,,CLR,0.00,VWS V14.01,2013-12-16 03:06:00,
2013-12-15 22:11:00,32.9,29.5,30.25,WNW,287,0.0,3.0,87,0.00,,CLR,0.00,VWS V14.01,2013-12-16 03:11:00,
2013-12-15 22:16:00,32.8,29.6,30.25,WNW,287,0.0,3.0,88,0.00,,CLR,0.00,VWS V14.01,2013-12-16 03:16:00,
2013-12-15 22:21:00,32.6,29.5,30.25,West,260,0.0,3.0,88,0.00,,CLR,0.00,VWS V14.01,2013-12-16 03:21:00,
2013-12-15 22:26:00,32.5,29.4,30.25,West,260,0.0,3.0,88,0.00,,CLR,0.00,VWS V14.01,2013-12-16 03:26:00,
2013-12-15 22:30:00,32.4,29.5,30.26,West,260,0.0,3.0,89,0.00,,CLR,0.00,VWS V14.01,2013-12-16 03:30:00,
2013-12-15 22:31:00,32.3,29.4,30.26,West,260,0.0,0.0,89,0.00,,CLR,0.00,VWS V14.01,2013-12-16 03:31:00,
2013-12-15 22:36:00,32.1,29.2,30.27,West,260,0.0,0.0,89,0.00,,CLR,0.00,VWS V14.01,2013-12-16 03:36:00,
2013-12-15 22:39:00,32.0,29.1,30.27,West,274,0.0,3.0,89,0.00,,CLR,0.00,VWS V14.01,2013-12-16 03:39:00,
2013-12-15 22:44:00,32.0,29.1,30.26,West,266,0.0,3.0,89,0.00,,CLR,0.00,VWS V14.01,2013-12-16 03:44:00,
2013-12-15 22:49:00,32.0,29.1,30.25,WNW,283,0.0,3.0,89,0.00,,CLR,0.00,VWS V14.01,2013-12-16 03:49:00,
2013-12-15 22:54:00,32.2,29.3,30.26,NW,313,0.0,8.0,89,0.00,,CLR,0.00,VWS V14.01,2013-12-16 03:54:00,
2013-12-15 22:59:00,32.3,29.4,30.26,SSW,197,6.0,8.0,89,0.00,,CLR,0.00,VWS V14.01,2013-12-16 03:59:00,
2013-12-15 23:00:00,32.4,29.5,30.26,SW,222,3.0,8.0,89,0.00,,FEW095,0.00,VWS V15.00,2013-12-16 04:00:00,
2013-12-15 23:04:00,32.5,29.4,30.26,WSW,246,0.0,5.0,88,0.00,,CLR,0.00,VWS V14.01,2013-12-16 04:04:00,
2013-12-15 23:09:00,32.5,29.4,30.26,WSW,250,0.0,5.0,88,0.00,,CLR,0.00,VWS V14.01,2013-12-16 04:09:00,
2013-12-15 23:14:00,32.5,29.4,30.26,NW,306,0.0,5.0,88,0.00,,CLR,0.00,VWS V14.01,2013-12-16 04:14:00,
2013-12-15 23:19:00,32.5,29.4,30.26,NW,313,2.0,6.0,88,0.00,,CLR,0.00,VWS V14.01,2013-12-16 04:19:00,
2013-12-15 23:24:00,32.5,29.4,30.26,WNW,297,1.0,6.0,88,0.00,,CLR,0.00,VWS V14.01,2013-12-16 04:24:00,
2013-12-15 23:29:00,32.5,29.4,30.26,West,261,0.0,6.0,88,0.00,,CLR,0.00,VWS V14.01,2013-12-16 04:29:00,
2013-12-15 23:30:00,32.5,29.4,30.26,West,261,0.0,6.0,88,0.00,,CLR,0.00,VWS V14.01,2013-12-16 04:30:00,
2013-12-15 23:34:00,32.5,29.4,30.26,West,261,0.0,3.0,88,0.00,,CLR,0.00,VWS V14.01,2013-12-16 04:34:00,
2013-12-15 23:39:00,32.4,29.2,30.26,West,261,0.0,3.0,88,0.00,,CLR,0.00,VWS V14.01,2013-12-16 04:39:00,
2013-12-15 23:44:00,32.3,29.1,30.25,West,261,0.0,3.0,88,0.00,,CLR,0.00,VWS V14.01,2013-12-16 04:44:00,
2013-12-15 23:49:00,32.1,29.2,30.26,West,261,0.0,3.0,89,0.00,,CLR,0.00,VWS V14.01,2013-12-16 04:49:00,
2013-12-15 23:54:00,31.9,29.0,30.26,NW,320,0.0,3.0,89,0.00,,CLR,0.00,VWS V14.01,2013-12-16 04:54:00,
2013-12-15 23:59:00,31.8,29.2,30.26,WNW,289,1.0,3.0,90,0.00,,CLR,0.00,VWS V14.01,2013-12-16 04:59:00,